Total_Precipitation_Accumulation
0.00 0.00 0.00 0.00 0.00 0.00 0.00 0.00 0.00 0.02 0.04 0.05 0.09 0.11 0.17 0.22 0.38 0.90 1.00 1.23 1.97 1.61 1.09 1.15 1.28 0.66 0.30 0.10 0.03 0.01 0.00 0.01 0.00 0.00 0.00 0.01 0.01 0.00 0.01 0.01 0.01 0.00 0.02 0.03 0.04 0.11 0.12 0.06 0.02
0.00 0.00 0.00 0.00 0.00 0.00 0.00 0.00 0.02 0.06 0.15 0.24 0.22 0.26 0.34 0.60 0.42 0.35 0.68 0.91 0.96 1.05 0.70 1.40 1.48 1.14 0.79 0.44 0.16 0.04 0.01 0.01 0.00 0.00 0.04 0.04 0.04 0.07 0.04 0.03 0.01 0.02 0.04 0.07 0.04 0.10 0.08 0.03 0.01
0.00 0.00 0.00 0.00 0.00 0.00 0.00 0.00 0.01 0.06 0.11 0.15 0.16 0.16 0.26 0.69 0.99 0.63 0.63 0.88 1.20 1.00 0.51 0.91 1.32 1.38 1.02 0.60 0.36 0.16 0.07 0.03 0.01 0.01 0.02 0.00 0.03 0.04 0.10 0.13 0.02 0.03 0.11 0.19 0.15 0.20 0.07 0.01 0.00
0.00 0.00 0.00 0.00 0.00 0.00 0.00 0.03 0.04 0.07 0.12 0.12 0.13 0.24 0.40 0.73 1.03 0.56 0.52 1.11 1.53 1.33 0.98 0.91 1.46 1.78 2.22 1.41 0.76 0.42 0.20 0.05 0.05 0.05 0.01 0.04 0.05 0.15 0.39 0.40 0.19 0.20 0.24 0.33 0.32 0.26 0.05 0.00 0.00
0.00 0.00 0.00 0.00 0.00 0.01 0.00 0.03 0.18 0.34 0.41 0.36 0.17 0.12 0.46 0.65 0.81 1.27 1.53 1.92 2.18 2.24 2.01 1.35 2.09 2.88 4.08 4.60 3.34 2.23 1.26 0.75 0.50 0.50 0.63 0.44 0.32 0.69 0.59 0.40 0.43 0.36 0.32 0.33 0.48 0.33 0.04 0.00 0.00
0.00 0.00 0.00 0.00 0.00 0.00 0.01 0.05 0.16 0.39 0.41 0.23 0.10 0.16 0.84 0.63 0.54 1.20 2.00 2.86 3.51 3.15 2.80 2.71 2.24 2.69 3.63 5.96 6.17 5.52 5.61 3.44 1.61 1.20 1.15 1.14 0.96 0.71 0.43 0.37 0.53 0.28 0.20 0.33 0.27 0.09 0.02 0.00 0.00
0.00 0.00 0.00 0.00 0.00 0.01 0.02 0.15 0.35 0.21 0.08 0.14 0.26 0.53 0.90 0.74 0.71 1.16 1.96 2.71 3.69 5.65 5.53 4.88 3.86 2.97 2.28 2.98 4.30 4.64 4.16 4.48 3.89 2.75 1.81 2.34 1.74 1.20 0.59 0.42 0.51 0.70 0.61 0.45 0.13 0.15 0.17 0.06 0.12
0.00 0.00 0.00 0.00 0.00 0.04 0.09 0.16 0.18 0.08 0.19 0.62 0.28 0.51 1.25 1.25 0.87 1.30 2.79 3.11 4.63 8.06 7.51 5.81 4.85 3.14 1.52 1.88 2.17 2.50 3.79 2.73 2.29 3.12 2.74 2.11 1.52 1.17 0.94 0.82 0.82 0.82 0.74 0.95 1.16 0.96 0.84 0.53 0.36
0.00 0.00 0.00 0.00 0.02 0.13 0.21 0.32 0.22 0.08 0.04 0.30 0.54 0.94 1.18 0.82 0.62 1.06 2.01 3.09 3.79 6.02 6.49 6.27 4.34 2.99 1.51 0.99 1.09 1.10 2.21 2.80 2.38 1.22 2.04 2.08 1.51 1.18 1.06 1.02 1.09 1.39 1.29 1.20 0.77 0.54 0.36 0.34 0.32
0.00 0.00 0.00 0.00 0.01 0.12 0.16 0.03 0.15 0.24 0.16 0.39 0.91 1.20 0.77 0.45 0.61 0.83 0.95 1.52 2.19 3.37 3.56 5.21 4.44 3.07 2.19 1.64 1.18 0.78 1.11 2.00 2.61 1.60 1.02 1.31 1.16 0.85 0.65 0.73 0.74 0.77 0.95 0.84 0.73 0.62 0.42 0.33 0.28
0.00 0.00 0.00 0.00 0.01 0.11 0.03 0.01 0.03 0.08 0.25 0.76 1.55 1.68 0.86 0.56 0.65 0.91 0.82 0.68 0.74 1.24 1.55 2.35 3.59 4.08 3.12 1.90 1.37 0.74 0.86 1.57 2.60 2.31 0.97 0.94 1.03 0.87 0.53 0.39 0.49 0.49 0.73 0.74 0.96 0.76 0.49 0.28 0.20
0.00 0.00 0.00 0.00 0.00 0.02 0.05 0.07 0.06 0.31 0.75 0.42 0.36 0.51 0.68 0.79 0.61 0.65 0.78 0.34 0.37 0.71 0.94 1.78 2.17 2.19 2.50 2.55 1.40 0.80 0.50 1.12 1.86 2.34 1.02 0.90 0.73 0.82 0.36 0.12 0.21 0.31 0.30 0.42 0.95 1.01 0.61 0.44 0.35
0.00 0.00 0.00 0.01 0.01 0.01 0.01 0.06 0.11 0.25 0.10 0.07 0.18 0.29 0.52 0.58 0.45 0.23 0.26 0.24 0.41 0.46 0.69 1.26 1.07 0.83 0.96 1.67 1.92 1.10 0.70 0.80 1.44 2.16 0.95 0.51 0.43 0.60 0.33 0.11 0.14 0.17 0.11 0.21 0.41 0.68 0.57 0.43 0.36
0.00 0.00 0.00 0.02 0.00 0.00 0.00 0.23 0.18 0.54 0.16 0.08 0.05 0.18 0.41 0.34 0.38 0.37 0.32 0.14 0.21 0.38 0.57 0.92 0.73 0.72 0.59 0.80 1.34 1.64 0.86 0.83 1.19 1.54 1.01 0.51 0.36 0.36 0.32 0.17 0.15 0.12 0.12 0.19 0.33 0.60 0.60 0.55 0.35
0.00 0.00 0.00 0.00 0.01 0.01 0.04 0.22 0.14 0.13 0.10 0.06 0.02 0.06 0.16 0.09 0.30 0.27 0.09 0.14 0.22 0.41 0.62 1.01 1.26 0.62 0.74 0.77 0.91 1.36 1.12 0.67 0.78 1.15 1.17 0.75 0.46 0.23 0.27 0.29 0.32 0.19 0.11 0.21 0.41 0.57 0.74 0.61 0.47
0.00 0.00 0.00 0.00 0.01 0.02 0.11 0.51 0.05 0.05 0.03 0.03 0.02 0.03 0.03 0.09 0.10 0.03 0.04 0.09 0.17 0.37 0.45 0.95 1.52 0.94 0.85 0.84 0.93 1.05 1.03 0.82 0.57 0.75 0.88 0.55 0.45 0.27 0.25 0.32 0.48 0.43 0.23 0.19 0.28 0.44 0.78 0.57 0.38
0.00 0.00 0.00 0.00 0.00 0.01 0.05 0.35 0.22 0.07 0.08 0.05 0.01 0.00 0.00 0.00 0.01 0.03 0.04 0.04 0.08 0.22 0.33 0.72 1.02 1.17 1.13 0.91 0.93 0.85 0.78 0.93 0.63 0.66 0.57 0.52 0.50 0.30 0.20 0.31 0.42 0.47 0.41 0.30 0.24 0.36 0.50 0.51 0.40
0.00 0.00 0.00 0.02 0.07 0.00 0.00 0.03 0.16 0.19 0.07 0.04 0.01 0.00 0.00 0.00 0.00 0.03 0.08 0.04 0.04 0.17 0.43 0.85 0.92 1.07 1.07 0.77 0.64 0.61 0.71 0.75 0.78 0.68 0.47 0.57 0.55 0.35 0.21 0.31 0.60 0.53 0.46 0.32 0.23 0.39 0.48 0.38 0.43
0.00 0.00 0.00 0.00 0.00 0.00 0.00 0.00 0.02 0.14 0.04 0.02 0.03 0.01 0.01 0.00 0.01 0.04 0.07 0.08 0.06 0.12 0.37 0.48 0.71 0.88 0.60 0.38 0.33 0.37 0.42 0.50 0.78 0.77 0.49 0.53 0.68 0.50 0.32 0.25 0.42 0.80 0.63 0.39 0.22 0.32 0.50 0.60 0.42
0.00 0.00 0.00 0.00 0.00 0.00 0.00 0.00 0.00 0.02 0.00 0.00 0.00 0.00 0.00 0.00 0.00 0.01 0.03 0.05 0.08 0.16 0.38 0.47 0.32 0.27 0.28 0.28 0.16 0.12 0.17 0.29 0.63 0.92 0.60 0.63 0.69 0.59 0.51 0.26 0.21 0.40 0.69 0.72 0.39 0.29 0.47 0.52 0.48
0.00 0.00 0.00 0.00 0.00 0.00 0.00 0.00 0.00 0.00 0.02 0.07 0.01 0.00 0.00 0.00 0.02 0.02 0.04 0.04 0.06 0.08 0.12 0.24 0.13 0.07 0.07 0.10 0.13 0.11 0.16 0.32 1.03 1.32 0.98 0.70 0.69 0.61 0.60 0.47 0.37 0.31 0.51 0.66 0.59 0.32 0.27 0.56 0.50
0.00 0.00 0.00 0.00 0.00 0.00 0.00 0.01 0.02 0.01 0.02 0.06 0.01 0.01 0.00 0.00 0.00 0.00 0.00 0.00 0.03 0.03 0.05 0.23 0.13 0.06 0.05 0.05 0.05 0.07 0.11 0.16 0.50 1.03 0.94 0.73 0.92 0.77 0.56 0.66 0.66 0.44 0.40 0.51 0.52 0.40 0.33 0.76 0.62
0.01 0.00 0.00 0.00 0.00 0.05 0.02 0.01 0.03 0.02 0.00 0.02 0.01 0.00 0.00 0.00 0.01 0.01 0.01 0.00 0.00 0.06 0.08 0.20 0.16 0.16 0.08 0.11 0.15 0.26 0.20 0.14 0.23 0.89 1.22 0.97 0.96 1.03 0.87 0.75 0.80 0.64 0.48 0.54 0.74 0.62 0.57 0.74 0.51
0.00 0.02 0.04 0.03 0.04 0.07 0.01 0.02 0.04 0.03 0.02 0.06 0.08 0.05 0.02 0.02 0.03 0.04 0.02 0.02 0.02 0.02 0.11 0.19 0.15 0.21 0.23 0.27 0.22 0.22 0.29 0.18 0.18 0.51 1.06 1.34 1.17 1.18 1.13 1.06 0.95 0.75 0.59 0.53 0.66 0.74 0.83 0.80 0.74
0.01 0.12 0.26 0.27 0.11 0.05 0.03 0.04 0.06 0.07 0.18 0.31 0.31 0.26 0.14 0.11 0.10 0.09 0.06 0.06 0.07 0.05 0.17 0.19 0.16 0.20 0.23 0.30 0.16 0.19 0.31 0.39 0.40 0.43 0.78 1.26 1.55 1.37 0.91 0.90 0.88 0.79 0.62 0.52 0.51 0.63 0.60 0.61 0.59
0.05 0.18 0.28 0.35 0.16 0.07 0.04 0.04 0.05 0.13 0.20 0.37 0.61 0.47 0.38 0.24 0.11 0.16 0.16 0.18 0.21 0.19 0.21 0.32 0.28 0.35 0.27 0.19 0.25 0.31 0.37 0.44 0.54 0.46 0.66 1.18 1.08 0.91 0.67 0.82 0.95 0.86 0.76 0.67 0.54 0.56 0.48 0.47 0.51
0.22 0.18 0.09 0.37 0.27 0.27 0.10 0.04 0.12 0.23 0.33 0.30 0.43 0.43 0.38 0.32 0.20 0.19 0.20 0.24 0.28 0.29 0.27 0.28 0.24 0.44 0.44 0.41 0.46 0.40 0.32 0.29 0.34 0.40 0.36 0.60 0.78 0.85 0.77 0.89 0.89 0.90 0.82 0.74 0.71 0.61 0.56 0.51 0.52
0.22 0.22 0.44 0.59 0.54 0.34 0.21 0.30 0.98 0.98 0.66 0.94 0.83 0.49 0.35 0.31 0.30 0.26 0.25 0.29 0.30 0.32 0.31 0.40 0.25 0.19 0.31 0.50 0.50 0.35 0.40 0.47 0.32 0.28 0.28 0.41 0.68 0.75 0.84 0.91 0.84 0.85 0.87 0.85 0.79 0.69 0.62 0.60 0.57
0.22 0.41 0.51 0.48 0.18 0.28 0.53 1.33 1.40 1.72 1.11 0.84 0.47 0.37 0.40 0.30 0.36 0.49 0.52 0.40 0.47 0.42 0.40 0.38 0.39 0.50 0.61 0.58 0.41 0.37 0.48 0.71 0.62 0.50 0.44 0.43 0.61 0.85 0.90 0.91 0.88 0.87 0.88 0.92 0.98 0.82 0.74 0.75 0.73
0.18 0.27 0.49 0.73 0.38 0.24 0.45 1.35 1.32 1.21 1.12 0.56 0.10 0.03 0.08 0.23 0.24 0.35 0.75 0.62 0.54 0.43 0.43 0.43 0.56 0.67 0.76 0.73 0.63 0.80 0.93 1.08 1.01 0.86 0.96 0.67 0.41 0.38 0.41 0.53 0.68 0.69 0.90 0.94 1.02 1.01 0.82 0.78 0.94